When you browse on this site, cookies collect data to enhance your experience and personalize the content and advertising you see.
Visit our Privacy Policy to learn more. By continuing to use the site, you agree to this use of cookies and data.
  • In Hungary
  • List of Countries
  • For 7 days
  • Water Temperature
  • Satellite Maps
  • Weather Map
  • News
  • Weather Widgets
  • user-avatar
    Login

    Hourly Weather Cormaia

    Today, 19 March, Tuesday

    Time Temperature Precipitation Wind Pressure Humidity
    00:00 +8°C° 0 mm 1 mps 703 mmHg 80%
    01:00 +7°C° 0 mm 1 mps 703 mmHg 81%
    02:00 +6°C° 0 mm 0 mps 703 mmHg 83%
    03:00 +5°C° 0 mm 0 mps 703 mmHg 85%
    04:00 +5°C° 0 mm 0 mps 703 mmHg 87%
    05:00 +4°C° 0 mm 0 mps 703 mmHg 89%
    06:00 +5°C° 0 mm 0 mps 704 mmHg 88%
    07:00 +6°C° 0 mm 1 mps 704 mmHg 86%
    08:00 +7°C° 0 mm 1 mps 705 mmHg 84%
    09:00 +9°C° 0 mm 1 mps 705 mmHg 79%
    10:00 +11°C° 0 mm 1 mps 706 mmHg 73%
    11:00 +13°C° 0 mm 1 mps 706 mmHg 67%
    12:00 +12°C° 0.1 mm 1 mps 706 mmHg 69%
    13:00 +12°C° 0.1 mm 1 mps 706 mmHg 71%
    14:00 +11°C° 0.1 mm 1 mps 706 mmHg 73%
    15:00 +11°C° 0.3 mm 1 mps 706 mmHg 76%
    16:00 +10°C° 0.3 mm 1 mps 706 mmHg 79%
    17:00 +10°C° 0.3 mm 1 mps 706 mmHg 82%
    18:00 +9°C° 0.2 mm 1 mps 706 mmHg 84%
    19:00 +8°C° 0.2 mm 1 mps 707 mmHg 87%
    20:00 +7°C° 0.2 mm 1 mps 707 mmHg 90%
    21:00 +7°C° 0.1 mm 1 mps 707 mmHg 90%
    22:00 +6°C° 0.1 mm 1 mps 708 mmHg 90%
    23:00 +6°C° 0.1 mm 1 mps 708 mmHg 90%

    Tomorrow, 20 March, Wednesday

    Time Temperature Precipitation Wind Pressure Humidity
    00:00 +6°C° 0.2 mm 1 mps 708 mmHg 90%
    01:00 +6°C° 0.2 mm 1 mps 709 mmHg 89%
    02:00 +6°C° 0.2 mm 1 mps 709 mmHg 89%
    03:00 +5°C° 0.4 mm 1 mps 709 mmHg 89%
    04:00 +5°C° 0.4 mm 1 mps 709 mmHg 89%
    05:00 +5°C° 0.4 mm 1 mps 709 mmHg 89%
    06:00 +5°C° 0.4 mm 1 mps 710 mmHg 88%
    07:00 +5°C° 0.4 mm 1 mps 710 mmHg 88%
    08:00 +5°C° 0.4 mm 1 mps 711 mmHg 87%
    09:00 +5°C° 0.5 mm 1 mps 711 mmHg 85%
    10:00 +5°C° 0.5 mm 1 mps 711 mmHg 82%
    11:00 +6°C° 0.5 mm 1 mps 711 mmHg 80%
    12:00 +6°C° 0.1 mm 1 mps 712 mmHg 78%
    13:00 +7°C° 0.1 mm 1 mps 712 mmHg 75%
    14:00 +8°C° 0.1 mm 1 mps 712 mmHg 73%
    15:00 +8°C° 0 mm 1 mps 712 mmHg 73%
    16:00 +8°C° 0 mm 1 mps 712 mmHg 73%
    17:00 +8°C° 0 mm 1 mps 712 mmHg 73%
    18:00 +7°C° 0 mm 1 mps 712 mmHg 78%
    19:00 +6°C° 0 mm 1 mps 712 mmHg 82%
    20:00 +5°C° 0 mm 1 mps 713 mmHg 86%
    21:00 +4°C° 0 mm 1 mps 713 mmHg 87%
    22:00 +3°C° 0 mm 1 mps 713 mmHg 88%
    23:00 +3°C° 0 mm 1 mps 713 mmHg 89%

    Day after tomorrow, 21 March, Thursday

    Time Temperature Precipitation Wind Pressure Humidity
    00:00 +2°C° 0 mm 1 mps 713 mmHg 89%
    01:00 +2°C° 0 mm 1 mps 713 mmHg 89%
    02:00 +1°C° 0 mm 1 mps 713 mmHg 88%
    03:00 +1°C° 0 mm 1 mps 713 mmHg 88%
    04:00 +1°C° 0 mm 1 mps 713 mmHg 87%
    05:00 +1°C° 0 mm 1 mps 713 mmHg 86%
    06:00 +2°C° 0 mm 1 mps 713 mmHg 83%
    07:00 +3°C° 0 mm 1 mps 713 mmHg 80%
    08:00 +4°C° 0 mm 1 mps 714 mmHg 77%
    09:00 +6°C° 0 mm 1 mps 714 mmHg 72%
    10:00 +7°C° 0 mm 1 mps 714 mmHg 67%
    11:00 +9°C° 0 mm 1 mps 714 mmHg 61%
    12:00 +10°C° 0 mm 1 mps 714 mmHg 59%
    13:00 +10°C° 0 mm 1 mps 713 mmHg 57%
    14:00 +10°C° 0 mm 2 mps 713 mmHg 54%
    15:00 +10°C° 0 mm 2 mps 713 mmHg 57%
    16:00 +11°C° 0 mm 1 mps 712 mmHg 59%
    17:00 +10°C° 0 mm 1 mps 712 mmHg 61%
    18:00 +9°C° 0 mm 1 mps 712 mmHg 66%
    19:00 +7°C° 0 mm 1 mps 712 mmHg 72%
    20:00 +5°C° 0 mm 1 mps 712 mmHg 77%
    21:00 +5°C° 0 mm 1 mps 713 mmHg 78%
    22:00 +5°C° 0 mm 1 mps 713 mmHg 79%
    23:00 +5°C° 0 mm 1 mps 713 mmHg 80%

    22 March, Friday

    Time Temperature Precipitation Wind Pressure Humidity
    00:00 +5°C° 0 mm 1 mps 713 mmHg 82%
    01:00 +5°C° 0 mm 1 mps 713 mmHg 83%
    02:00 +4°C° 0 mm 1 mps 713 mmHg 84%
    03:00 +4°C° 0 mm 1 mps 712 mmHg 85%
    04:00 +4°C° 0 mm 1 mps 712 mmHg 86%
    05:00 +3°C° 0 mm 1 mps 712 mmHg 87%
    06:00 +3°C° 0 mm 0 mps 712 mmHg 84%
    07:00 +4°C° 0 mm 0 mps 712 mmHg 82%
    08:00 +5°C° 0 mm 0 mps 713 mmHg 79%
    09:00 +7°C° 0 mm 0 mps 713 mmHg 73%
    10:00 +10°C° 0 mm 1 mps 713 mmHg 67%
    11:00 +12°C° 0 mm 1 mps 713 mmHg 61%
    12:00 +12°C° 0 mm 1 mps 713 mmHg 60%
    13:00 +13°C° 0 mm 1 mps 712 mmHg 58%
    14:00 +13°C° 0 mm 1 mps 712 mmHg 57%
    15:00 +13°C° 0 mm 1 mps 712 mmHg 59%
    16:00 +13°C° 0 mm 1 mps 712 mmHg 62%
    17:00 +12°C° 0 mm 1 mps 711 mmHg 65%
    18:00 +10°C° 0 mm 1 mps 711 mmHg 71%
    19:00 +9°C° 0 mm 1 mps 711 mmHg 78%
    20:00 +6°C° 0 mm 0 mps 711 mmHg 84%
    21:00 +6°C° 0 mm 0 mps 711 mmHg 85%
    22:00 +5°C° 0 mm 0 mps 711 mmHg 87%
    23:00 +5°C° 0 mm 0 mps 711 mmHg 88%

    23 March, Saturday

    Time Temperature Precipitation Wind Pressure Humidity
    00:00 +5°C° 0 mm 0 mps 711 mmHg 89%
    01:00 +4°C° 0 mm 0 mps 711 mmHg 90%
    02:00 +4°C° 0 mm 0 mps 711 mmHg 91%
    03:00 +4°C° 0 mm 0 mps 711 mmHg 91%
    04:00 +5°C° 0 mm 1 mps 711 mmHg 91%
    05:00 +5°C° 0 mm 1 mps 710 mmHg 91%
    06:00 +4°C° 0 mm 0 mps 711 mmHg 88%
    07:00 +5°C° 0 mm 0 mps 711 mmHg 85%
    08:00 +6°C° 0 mm 0 mps 711 mmHg 81%
    09:00 +9°C° 0 mm 1 mps 711 mmHg 75%
    10:00 +11°C° 0 mm 1 mps 711 mmHg 69%
    11:00 +13°C° 0 mm 1 mps 711 mmHg 63%
    12:00 +13°C° 0 mm 2 mps 711 mmHg 62%
    13:00 +14°C° 0 mm 2 mps 711 mmHg 60%
    14:00 +14°C° 0 mm 2 mps 710 mmHg 59%
    15:00 +14°C° 0 mm 2 mps 710 mmHg 60%
    16:00 +14°C° 0 mm 2 mps 710 mmHg 62%
    17:00 +14°C° 0 mm 2 mps 709 mmHg 63%
    18:00 +12°C° 0 mm 1 mps 709 mmHg 70%
    19:00 +10°C° 0 mm 1 mps 709 mmHg 77%
    20:00 +7°C° 0 mm 0 mps 709 mmHg 84%
    21:00 +8°C° 0 mm 1 mps 709 mmHg 85%
    22:00 +8°C° 0 mm 1 mps 709 mmHg 86%
    23:00 +7°C° 0 mm 1 mps 709 mmHg 87%

    24 March, Sunday

    Time Temperature Precipitation Wind Pressure Humidity
    00:00 +7°C° 0 mm 1 mps 709 mmHg 87%
    01:00 +6°C° 0 mm 0 mps 709 mmHg 88%
    02:00 +5°C° 0 mm 0 mps 709 mmHg 88%
    03:00 +5°C° 0 mm 0 mps 708 mmHg 89%
    04:00 +5°C° 0 mm 0 mps 708 mmHg 90%
    05:00 +4°C° 0 mm 0 mps 708 mmHg 90%
    06:00 +5°C° 0 mm 0 mps 708 mmHg 88%
    07:00 +6°C° 0 mm 0 mps 708 mmHg 85%
    08:00 +7°C° 0 mm 0 mps 708 mmHg 82%
    09:00 +10°C° 0 mm 1 mps 708 mmHg 75%
    10:00 +12°C° 0 mm 1 mps 708 mmHg 68%
    11:00 +13°C° 0 mm 2 mps 708 mmHg 60%
    12:00 +14°C° 0 mm 2 mps 707 mmHg 58%
    13:00 +15°C° 0 mm 2 mps 707 mmHg 55%
    14:00 +14°C° 0 mm 3 mps 706 mmHg 52%
    15:00 +14°C° 0 mm 3 mps 706 mmHg 53%
    16:00 +14°C° 0 mm 3 mps 705 mmHg 54%
    17:00 +13°C° 0 mm 3 mps 705 mmHg 55%
    18:00 +13°C° 0 mm 2 mps 704 mmHg 63%
    19:00 +11°C° 0 mm 1 mps 704 mmHg 71%
    20:00 +9°C° 0 mm 1 mps 704 mmHg 79%
    21:00 +9°C° 0 mm 1 mps 704 mmHg 81%
    22:00 +8°C° 0 mm 1 mps 703 mmHg 84%
    23:00 +7°C° 0 mm 0 mps 703 mmHg 86%
    Show more